Regional Weather Roundup
Issued by NWS

Home | Current Version | Previous Version | Text Only | Print | Product List | Glossary On
Versions: 1 2 3 4 5 6 7 8 9 10 11 12 13 14 15 16 17 18 19 20 21 22 23 24 25 26 27 28 29 30 31 32 33 34 35 36 37 38 39 40 41 42 43 44 45 46 47 48 49 50
000
ASUS45 KSLC 140210
RWRUT

UTAH REGIONAL WEATHER ROUNDUP
NATIONAL WEATHER SERVICE SALT LAKE CITY UT
700 PM MST SAT FEB 13 2016

UTZ001>011-023>025-140300-

NORTHERN UTAH

CITY           SKY/WX    TMP DP  RH WIND       PRES   REMARKS
BRIGHAM CITY   CLOUDY    28  26  91 N8        30.34R WCI  20
HILL AFB       FOG       27  27 100 N6        30.30R VSB 1/2 WCI  20
LOGAN          CLEAR     24  23  96 CALM      30.32R FOG
OGDEN          FOG       27  27 100 NW3       30.31R VSB 3/4
PROVO AIRPORT  CLEAR     25  21  86 CALM      30.31R FOG
SALT LAKE CITY FOG       29  28  96 NW8       30.32R VSB 1/8 WCI  21
VERNAL         CLOUDY    26  21  81 CALM      30.18R HAZE
WENDOVER       CLEAR     32  27  80 S3        30.32R
HEBER CITY     CLEAR     32  23  69 CALM      30.25R
WEST JORDAN    CLEAR     28  28 100 NW6       30.31R WCI  22

$$

UTZ012>022-026-027-140300-

SOUTHERN/CENTRAL UTAH

CITY           SKY/WX    TMP DP  RH WIND       PRES   REMARKS
BLANDING       CLOUDY    47  25  42 CALM      30.26S
BRYCE CANYON   MOCLDY    39  20  46 N8        30.30R WCI  33
CEDAR CITY     MOCLDY    37  25  61 S5        30.22F WCI  33
DELTA          MOCLDY    22  20  91 CALM      30.29R
HANKSVILLE     MOCLDY    41  36  81 CALM      30.19S
MILFORD        MOCLDY    19  15  84 NW8       30.26R WCI   9
MOAB/CYNLANDS  MOCLDY    42  35  76 CALM      30.17R
PRICE          CLEAR     34  26  72 N9        30.20R WCI  27
ST GEORGE      CLEAR     57  27  30 CALM      30.15S
KANAB          CLOUDY    57  21  24 N9        30.21R

$$

REGIONAL REPORTS     COLORADO/ARIZONA

CITY           SKY/WX    TMP DP  RH WIND       PRES   REMARKS
CRAIG, CO      CLOUDY    21  15  78 SW7       30.17R WCI  12
GRAND JUNCTION CLOUDY    32  30  92 E5        30.19R WCI  27
RIFLE          CLOUDY    36  25  64 CALM      30.16F
MONTROSE       CLOUDY    41  28  60 SE3       30.20F
CORTEZ         CLOUDY    40  27  59 E3        30.19R
PAGE, AZ       CLOUDY    53  33  46 N3        30.17R
GRAND CANYON   PTCLDY    37  22  54 NE5       30.24S WCI  33
KINGMAN        CLEAR     56  19  23 NE7       30.13R
FLAGSTAFF      MOCLDY    39  20  46 CALM      30.24R

$$

REGIONAL REPORTS    NEVADA/IDAHO/WYOMING

CITY           SKY/WX    TMP DP  RH WIND       PRES   REMARKS
LAS VEGAS, NV  PTCLDY    70  24  17 CALM      30.06F
ELY            CLEAR     32  20  61 W10       30.29R WCI  24
ELKO           CLEAR     31  25  78 SW5       30.29R WCI  26
POCATELLO, ID  CLEAR     37  29  72 S8        30.26S WCI  31
BURLEY         PTCLDY    38  29  70 SW12      30.24F WCI  30
EVANSTON, WY   CLEAR     33  22  63 W18       30.25S WCI  22
ROCK SPRINGS   CLEAR     34  15  46 W22G30    30.15S WCI  22

$$



USA.gov is the U.S. government's official web portal to all federal, state and local government web resources and services.